,,,PA_Meas_PMT16A,,PR_Meas_QMR101_102,,RH_Meas_QMH101,,SR_Meas_QMS101,,TA_Meas_QMH101,,GenWind,,GenWind,
date,time,status,PA,status,PR,status,RH,status,SR,status,TA,status,DirAvg,status,SpdAvg,
2008-06-27, 00:00:04,VALID,1010.54,VALID,0,VALID,90.3118,VALID,0,VALID,22.642,VALID,9,VALID,0,
2008-06-27, 00:01:04,VALID,1010.49,VALID,0,VALID,90.2584,VALID,0,VALID,22.6225,VALID,9,VALID,0,
2008-06-27, 00:02:04,VALID,1010.49,VALID,0,VALID,90.4567,VALID,0,VALID,22.6225,VALID,9,VALID,0,
2008-06-27, 00:03:04,VALID,1010.45,VALID,0,VALID,90.8304,VALID,0,VALID,22.603,VALID,9,VALID,0,
2008-06-27, 00:04:04,VALID,1010.45,VALID,0,VALID,90.9676,VALID,0,VALID,22.6047,VALID,9,VALID,0,
2008-06-27, 00:05:04,VALID,1010.44,VALID,0,VALID,90.96,VALID,0,VALID,22.5852,VALID,9,VALID,0,
2008-06-27, 00:06:04,VALID,1010.45,VALID,0,VALID,91.0896,VALID,0,VALID,22.5446,VALID,9,VALID,0,
2008-06-27, 00:07:04,VALID,1010.46,VALID,0,VALID,91.1125,VALID,0,VALID,22.5446,VALID,9,VALID,0,
2008-06-27, 00:08:04,VALID,1010.45,VALID,0,VALID,91.2421,VALID,0,VALID,22.5251,VALID,9,VALID,0,
2008-06-27, 00:09:04,VALID,1010.43,VALID,0,VALID,91.3184,VALID,0,VALID,22.4861,VALID,9,VALID,0,
2008-06-27, 00:10:04,VALID,1010.44,VALID,0,VALID,91.0744,VALID,0,VALID,22.4667,VALID,9,VALID,0,
2008-06-27, 00:11:04,VALID,1010.42,VALID,0,VALID,91.448,VALID,0,VALID,22.4667,VALID,9,VALID,0,
2008-06-27, 00:12:04,VALID,1010.4,VALID,0,VALID,91.6158,VALID,0,VALID,22.4667,VALID,9,VALID,0,
2008-06-27, 00:13:04,VALID,1010.4,VALID,0,VALID,91.7607,VALID,0,VALID,22.4472,VALID,9,VALID,0,
2008-06-27, 00:14:04,VALID,1010.39,VALID,0,VALID,91.6997,VALID,0,VALID,22.4489,VALID,9,VALID,0,
2008-06-27, 00:15:04,VALID,1010.38,VALID,0,VALID,91.7302,VALID,0,VALID,22.4082,VALID,9,VALID,0,
2008-06-27, 00:16:04,VALID,1010.4,VALID,0,VALID,91.7378,VALID,0,VALID,22.4294,VALID,9,VALID,0,
2008-06-27, 00:17:04,VALID,1010.39,VALID,0,VALID,91.6997,VALID,0,VALID,22.4082,VALID,9,VALID,0,
2008-06-27, 00:18:04,VALID,1010.38,VALID,0,VALID,91.9056,VALID,0,VALID,22.4489,VALID,9,VALID,0,
2008-06-27, 00:19:04,VALID,1010.37,VALID,0,VALID,91.8064,VALID,0,VALID,22.4294,VALID,9,VALID,0,
2008-06-27, 00:20:04,VALID,1010.37,VALID,0,VALID,91.9666,VALID,0,VALID,22.4082,VALID,9,VALID,0,
2008-06-27, 00:21:04,VALID,1010.38,VALID,0,VALID,92.2182,VALID,0,VALID,22.4082,VALID,9,VALID,0,
2008-06-27, 00:22:04,VALID,1010.38,VALID,0,VALID,92.081,VALID,0,VALID,22.3887,VALID,9,VALID,0,
2008-06-27, 00:23:04,VALID,1010.36,VALID,0,VALID,91.959,VALID,0,VALID,22.3887,VALID,9,VALID,0,
2008-06-27, 00:24:04,VALID,1010.36,VALID,0,VALID,91.6997,VALID,0,VALID,22.3904,VALID,9,VALID,0,
2008-06-27, 00:25:04,VALID,1010.37,VALID,0,VALID,92.3479,VALID,0,VALID,22.4082,VALID,9,VALID,0,
2008-06-27, 00:26:04,VALID,1010.39,VALID,0,VALID,92.2869,VALID,0,VALID,22.4082,VALID,9,VALID,0,
2008-06-27, 00:27:04,VALID,1010.39,VALID,0,VALID,92.1877,VALID,0,VALID,22.4082,VALID,9,VALID,0,
2008-06-27, 00:28:04,VALID,1010.39,VALID,0,VALID,92.081,VALID,0,VALID,22.4082,VALID,9,VALID,0,
2008-06-27, 00:29:04,VALID,1010.39,VALID,0,VALID,92.1191,VALID,0,VALID,22.4082,VALID,9,VALID,0.304688,
2008-06-27, 00:30:04,VALID,1010.39,VALID,0,VALID,91.7836,VALID,0,VALID,22.3887,VALID,9,VALID,0.386719,
2008-06-27, 00:31:04,VALID,1010.35,VALID,0,VALID,91.6921,VALID,0,VALID,22.4082,VALID,332,VALID,0.389062,
2008-06-27, 00:32:04,VALID,1010.36,VALID,0,VALID,91.4175,VALID,0,VALID,22.4294,VALID,332,VALID,0.302344,
2008-06-27, 00:33:04,VALID,1010.32,VALID,0,VALID,91.0515,VALID,0,VALID,22.4277,VALID,332,VALID,0.391016,
2008-06-27, 00:34:04,VALID,1010.31,VALID,0,VALID,90.96,VALID,0,VALID,22.4472,VALID,332,VALID,0.358203,
2008-06-27, 00:35:04,VALID,1010.28,VALID,0,VALID,90.7236,VALID,0,VALID,22.4667,VALID,332,VALID,0.242969,
2008-06-27, 00:36:04,VALID,1010.25,VALID,0,VALID,91.2726,VALID,0,VALID,22.5056,VALID,332,VALID,0.0796875,
2008-06-27, 00:37:04,VALID,1010.25,VALID,0,VALID,91.0591,VALID,0,VALID,22.5268,VALID,332,VALID,0,
2008-06-27, 00:38:04,VALID,1010.24,VALID,0,VALID,91.3565,VALID,0,VALID,22.564,VALID,332,VALID,0,
2008-06-27, 00:39:04,VALID,1010.2,VALID,0,VALID,90.6702,VALID,0,VALID,22.564,VALID,332,VALID,0,
2008-06-27, 00:40:04,VALID,1010.22,VALID,0,VALID,91.0973,VALID,0,VALID,22.603,VALID,332,VALID,0,
2008-06-27, 00:41:04,VALID,1010.21,VALID,0,VALID,90.716,VALID,0,VALID,22.6242,VALID,332,VALID,0.161719,
2008-06-27, 00:42:04,VALID,1010.22,VALID,0,VALID,90.5863,VALID,0,VALID,22.642,VALID,332,VALID,0,
2008-06-27, 00:43:04,VALID,1010.22,VALID,0,VALID,90.5406,VALID,0,VALID,22.6614,VALID,332,VALID,0,
2008-06-27, 00:44:04,VALID,1010.22,VALID,0,VALID,90.7693,VALID,0,VALID,22.6632,VALID,338,VALID,0.297656,
2008-06-27, 00:45:04,VALID,1010.25,VALID,0,VALID,90.8151,VALID,0,VALID,22.6225,VALID,338,VALID,0.215625,
2008-06-27, 00:46:04,VALID,1010.21,VALID,0,VALID,91.1964,VALID,0,VALID,22.603,VALID,338,VALID,0.34375,
2008-06-27, 00:47:04,VALID,1010.19,VALID,0,VALID,91.8064,VALID,0,VALID,22.642,VALID,81,VALID,0.410937,
2008-06-27, 00:48:04,VALID,1010.2,VALID,0,VALID,91.9361,VALID,0,VALID,22.642,VALID,104,VALID,0.553125,
2008-06-27, 00:49:04,VALID,1010.17,VALID,0,VALID,91.3642,VALID,0,VALID,22.603,VALID,105,VALID,0.483203,
2008-06-27, 00:50:04,VALID,1010.19,VALID,0,VALID,91.6997,VALID,0,VALID,22.6225,VALID,105,VALID,0.465625,
2008-06-27, 00:51:04,VALID,1010.17,VALID,0,VALID,91.5777,VALID,0,VALID,22.6437,VALID,105,VALID,0.46875,
2008-06-27, 00:52:04,VALID,1010.19,VALID,0,VALID,91.5243,VALID,0,VALID,22.6225,VALID,105,VALID,0.328125,
2008-06-27, 00:53:04,VALID,1010.17,VALID,0,VALID,91.9132,VALID,0,VALID,22.6614,VALID,105,VALID,0.0355469,
2008-06-27, 00:54:04,VALID,1010.17,VALID,0,VALID,92.4165,VALID,0,VALID,22.7021,VALID,105,VALID,0.0582031,
2008-06-27, 00:55:04,VALID,1010.17,VALID,0,VALID,92.1496,VALID,0,VALID,22.6614,VALID,105,VALID,0,
2008-06-27, 00:56:04,VALID,1010.15,VALID,0,VALID,91.8064,VALID,0,VALID,22.6826,VALID,105,VALID,0,
2008-06-27, 00:57:04,VALID,1010.16,VALID,0,VALID,91.6539,VALID,0,VALID,22.6826,VALID,105,VALID,0,
2008-06-27, 00:58:04,VALID,1010.15,VALID,0,VALID,91.4175,VALID,0,VALID,22.7021,VALID,105,VALID,0.0605469,
2008-06-27, 00:59:04,VALID,1010.13,VALID,0,VALID,91.448,VALID,0,VALID,22.7004,VALID,105,VALID,0.117969,
2008-06-27, 01:00:04,VALID,1010.12,VALID,0,VALID,91.959,VALID,0,VALID,22.7199,VALID,105,VALID,0.00195313,
2008-06-27, 01:01:04,VALID,1010.1,VALID,0,VALID,91.8217,VALID,0,VALID,22.7199,VALID,105,VALID,0,
2008-06-27, 01:02:04,VALID,1010.13,VALID,0,VALID,91.7759,VALID,0,VALID,22.7199,VALID,105,VALID,0,
2008-06-27, 01:03:04,VALID,1010.1,VALID,0,VALID,91.6768,VALID,0,VALID,22.7199,VALID,105,VALID,0.209766,
2008-06-27, 01:04:04,VALID,1010.1,VALID,0,VALID,91.2726,VALID,0,VALID,22.7004,VALID,105,VALID,0.205859,
2008-06-27, 01:05:04,VALID,1010.08,VALID,0,VALID,91.3413,VALID,0,VALID,22.6809,VALID,105,VALID,0,
2008-06-27, 01:06:04,VALID,1010.07,VALID,0,VALID,91.3947,VALID,0,VALID,22.7004,VALID,105,VALID,0.0835937,
2008-06-27, 01:07:04,VALID,1010.05,VALID,0,VALID,91.4099,VALID,0,VALID,22.6809,VALID,103,VALID,0.349219,
2008-06-27, 01:08:04,VALID,1010.04,VALID,0,VALID,91.0667,VALID,0,VALID,22.6632,VALID,98,VALID,0.365625,
2008-06-27, 01:09:04,VALID,1009.99,VALID,0,VALID,91.1278,VALID,0,VALID,22.6437,VALID,95,VALID,0.289063,
2008-06-27, 01:10:04,VALID,1010.01,VALID,0,VALID,91.7378,VALID,0,VALID,22.6225,VALID,95,VALID,0.220703,
2008-06-27, 01:11:04,VALID,1009.99,VALID,0,VALID,91.4328,VALID,0,VALID,22.5835,VALID,95,VALID,0.386328,
2008-06-27, 01:12:04,VALID,1009.99,VALID,0,VALID,91.5777,VALID,0,VALID,22.603,VALID,95,VALID,0.279687,
2008-06-27, 01:13:04,VALID,1009.95,VALID,0,VALID,91.4023,VALID,0,VALID,22.603,VALID,95,VALID,0.283594,
2008-06-27, 01:14:04,VALID,1009.94,VALID,0,VALID,90.6778,VALID,0,VALID,22.6225,VALID,95,VALID,0.326172,
2008-06-27, 01:15:04,VALID,1009.91,VALID,0,VALID,91.1049,VALID,0,VALID,22.7021,VALID,95,VALID,0.251953,
2008-06-27, 01:16:04,VALID,1009.9,VALID,0,VALID,91.448,VALID,0,VALID,22.7004,VALID,157,VALID,0.648828,
2008-06-27, 01:17:04,VALID,1009.87,VALID,0,VALID,90.9676,VALID,0,VALID,22.6614,VALID,174,VALID,0.666016,
2008-06-27, 01:18:04,VALID,1009.85,VALID,0,VALID,90.9066,VALID,0,VALID,22.6614,VALID,174,VALID,0.565234,
2008-06-27, 01:19:04,VALID,1009.87,VALID,0,VALID,90.8609,VALID,0,VALID,22.642,VALID,174,VALID,0.426172,
2008-06-27, 01:20:04,VALID,1009.85,VALID,0,VALID,90.6778,VALID,0,VALID,22.6614,VALID,174,VALID,0.526172,
2008-06-27, 01:21:04,VALID,1009.84,VALID,0,VALID,90.655,VALID,0,VALID,22.642,VALID,174,VALID,0.458594,
2008-06-27, 01:22:04,VALID,1009.86,VALID,0,VALID,90.9905,VALID,0,VALID,22.6614,VALID,174,VALID,0.523438,
2008-06-27, 01:23:04,VALID,1009.83,VALID,0,VALID,91.1811,VALID,0,VALID,22.6809,VALID,174,VALID,0.433203,
2008-06-27, 01:24:04,VALID,1009.82,VALID,0,VALID,91.0362,VALID,0,VALID,22.6614,VALID,174,VALID,0.434375,
2008-06-27, 01:25:04,VALID,1009.81,VALID,0,VALID,91.1888,VALID,0,VALID,22.6826,VALID,174,VALID,0.257031,
2008-06-27, 01:26:04,VALID,1009.79,VALID,0,VALID,91.2574,VALID,0,VALID,22.6614,VALID,174,VALID,0.251953,
2008-06-27, 01:27:04,VALID,1009.8,VALID,0,VALID,91.4785,VALID,0,VALID,22.6809,VALID,174,VALID,0.203516,
2008-06-27, 01:28:04,VALID,1009.79,VALID,0,VALID,91.6311,VALID,0,VALID,22.6809,VALID,174,VALID,0.0398437,
2008-06-27, 01:29:04,VALID,1009.79,VALID,0,VALID,91.5167,VALID,0.105969,VALID,22.6792,VALID,174,VALID,0.00898437,
2008-06-27, 01:30:04,VALID,1009.78,VALID,0,VALID,91.2726,VALID,0.105969,VALID,22.7004,VALID,174,VALID,0.348828,
2008-06-27, 01:31:04,VALID,1009.78,VALID,0,VALID,91.265,VALID,0,VALID,22.7394,VALID,174,VALID,0.205078,
2008-06-27, 01:32:04,VALID,1009.78,VALID,0,VALID,91.204,VALID,0,VALID,22.7182,VALID,174,VALID,0.316797,
2008-06-27, 01:33:04,VALID,1009.78,VALID,0,VALID,91.4938,VALID,0.105969,VALID,22.7376,VALID,174,VALID,0.300391,
2008-06-27, 01:34:04,VALID,1009.75,VALID,0,VALID,91.4709,VALID,0,VALID,22.7394,VALID,174,VALID,0.407031,
2008-06-27, 01:35:04,VALID,1009.75,VALID,0,VALID,91.5014,VALID,0.105969,VALID,22.7588,VALID,174,VALID,0.339453,
2008-06-27, 01:36:04,VALID,1009.75,VALID,0,VALID,91.5319,VALID,0.105969,VALID,22.7182,VALID,174,VALID,0.325391,
2008-06-27, 01:37:04,VALID,1009.73,VALID,0,VALID,91.6158,VALID,0,VALID,22.7376,VALID,174,VALID,0.382422,
2008-06-27, 01:38:04,VALID,1009.72,VALID,0,VALID,91.5777,VALID,0.105969,VALID,22.7376,VALID,174,VALID,0.263672,
2008-06-27, 01:39:04,VALID,1009.71,VALID,0,VALID,91.6539,VALID,0.105969,VALID,22.7376,VALID,174,VALID,0.174219,
2008-06-27, 01:40:04,VALID,1009.7,VALID,0,VALID,91.5395,VALID,0.105969,VALID,22.7376,VALID,174,VALID,0.0304688,
2008-06-27, 01:41:04,VALID,1009.69,VALID,0,VALID,91.4938,VALID,0.105969,VALID,22.7571,VALID,174,VALID,0,
2008-06-27, 01:42:04,VALID,1009.68,VALID,0,VALID,91.5853,VALID,0.105969,VALID,22.7766,VALID,174,VALID,0,
2008-06-27, 01:43:04,VALID,1009.65,VALID,0,VALID,91.6234,VALID,0.105969,VALID,22.7766,VALID,174,VALID,0,
2008-06-27, 01:44:04,VALID,1009.66,VALID,0,VALID,91.6463,VALID,0,VALID,22.7995,VALID,174,VALID,0,
2008-06-27, 01:45:04,VALID,1009.65,VALID,0,VALID,91.6311,VALID,0,VALID,22.7978,VALID,174,VALID,0,
2008-06-27, 01:46:04,VALID,1009.64,VALID,0,VALID,91.8827,VALID,0,VALID,22.8173,VALID,174,VALID,0,
2008-06-27, 01:47:04,VALID,1009.64,VALID,0,VALID,92.0581,VALID,0,VALID,22.8173,VALID,174,VALID,0,
2008-06-27, 01:48:04,VALID,1009.62,VALID,0,VALID,92.0657,VALID,0,VALID,22.8385,VALID,174,VALID,0,
2008-06-27, 01:49:04,VALID,1009.61,VALID,0,VALID,91.8446,VALID,0,VALID,22.7978,VALID,174,VALID,0,
2008-06-27, 01:50:04,VALID,1009.62,VALID,0,VALID,91.8522,VALID,0,VALID,22.7978,VALID,174,VALID,0,
2008-06-27, 01:51:04,VALID,1009.59,VALID,0,VALID,91.7378,VALID,0,VALID,22.8173,VALID,174,VALID,0.410156,
2008-06-27, 01:52:04,VALID,1009.63,VALID,0,VALID,91.6844,VALID,0,VALID,22.7978,VALID,182,VALID,0.51875,
2008-06-27, 01:53:04,VALID,1009.62,VALID,0,VALID,91.5777,VALID,0,VALID,22.7978,VALID,185,VALID,0.366016,
2008-06-27, 01:54:04,VALID,1009.66,VALID,0,VALID,91.2879,VALID,0,VALID,22.819,VALID,185,VALID,0.2875,
2008-06-27, 01:55:04,VALID,1009.66,VALID,0,VALID,91.3794,VALID,0,VALID,22.8385,VALID,185,VALID,0.101953,
2008-06-27, 01:56:04,VALID,1009.67,VALID,0,VALID,91.2421,VALID,0,VALID,22.8173,VALID,185,VALID,0,
2008-06-27, 01:57:04,VALID,1009.69,VALID,0,VALID,91.1278,VALID,0,VALID,22.8173,VALID,185,VALID,0,
2008-06-27, 01:58:04,VALID,1009.7,VALID,0,VALID,91.3794,VALID,0,VALID,22.858,VALID,185,VALID,0,
2008-06-27, 01:59:04,VALID,1009.74,VALID,0,VALID,91.57,VALID,0,VALID,22.8173,VALID,185,VALID,0.201953,
2008-06-27, 02:00:04,VALID,1009.75,VALID,0,VALID,91.5319,VALID,0,VALID,22.8173,VALID,185,VALID,0.332031,
2008-06-27, 02:01:04,VALID,1009.79,VALID,0,VALID,91.7226,VALID,0,VALID,22.8173,VALID,185,VALID,0.358203,
2008-06-27, 02:02:04,VALID,1009.79,VALID,0,VALID,91.8903,VALID,0,VALID,22.8368,VALID,137,VALID,0.433203,
2008-06-27, 02:03:04,VALID,1009.84,VALID,0,VALID,91.3184,VALID,0,VALID,22.8385,VALID,136,VALID,0.853125,
2008-06-27, 02:04:05,VALID,1009.83,VALID,0,VALID,90.4186,VALID,0,VALID,22.8775,VALID,136,VALID,0.717969,
2008-06-27, 02:05:05,VALID,1009.85,VALID,0,VALID,90.8304,VALID,0,VALID,22.8757,VALID,134,VALID,0.589063,
2008-06-27, 02:06:05,VALID,1009.84,VALID,0,VALID,90.6168,VALID,0,VALID,22.8969,VALID,134,VALID,0.589063,
2008-06-27, 02:07:05,VALID,1009.85,VALID,0,VALID,90.2813,VALID,0,VALID,22.8562,VALID,145,VALID,0.698828,
2008-06-27, 02:08:05,VALID,1009.84,VALID,0,VALID,90.327,VALID,0,VALID,22.8368,VALID,147,VALID,0.547266,
2008-06-27, 02:09:05,VALID,1009.87,VALID,0,VALID,90.6473,VALID,0,VALID,22.8368,VALID,147,VALID,0.388672,
2008-06-27, 02:10:05,VALID,1009.86,VALID,0,VALID,90.6321,VALID,0,VALID,22.8385,VALID,147,VALID,0.444922,
2008-06-27, 02:11:05,VALID,1009.86,VALID,0,VALID,90.5939,VALID,0,VALID,22.819,VALID,145,VALID,0.394531,
2008-06-27, 02:12:05,VALID,1009.87,VALID,0,VALID,90.6397,VALID,0,VALID,22.8385,VALID,117,VALID,0.763281,
2008-06-27, 02:13:05,VALID,1009.86,VALID,0,VALID,90.1745,VALID,0,VALID,22.7783,VALID,115,VALID,0.808203,
2008-06-27, 02:14:05,VALID,1009.87,VALID,0,VALID,90.5253,VALID,0,VALID,22.8173,VALID,127,VALID,0.753516,
2008-06-27, 02:15:05,VALID,1009.89,VALID,0,VALID,90.7541,VALID,0,VALID,22.858,VALID,118,VALID,0.444141,
2008-06-27, 02:16:05,VALID,1009.87,VALID,0,VALID,90.9295,VALID,0,VALID,22.8562,VALID,118,VALID,0.236719,
2008-06-27, 02:17:05,VALID,1009.86,VALID,0,VALID,91.0973,VALID,0,VALID,22.835,VALID,107,VALID,0.309766,
2008-06-27, 02:18:05,VALID,1009.84,VALID,0,VALID,90.6016,VALID,0,VALID,22.8368,VALID,86,VALID,0.526172,
2008-06-27, 02:19:05,VALID,1009.85,VALID,0,VALID,90.6473,VALID,0.105969,VALID,22.8562,VALID,81,VALID,0.375391,
2008-06-27, 02:20:05,VALID,1009.82,VALID,0,VALID,90.7007,VALID,0,VALID,22.8368,VALID,65,VALID,0.6125,
2008-06-27, 02:21:05,VALID,1009.81,VALID,0,VALID,90.6168,VALID,0,VALID,22.819,VALID,65,VALID,0.339844,
2008-06-27, 02:22:05,VALID,1009.8,VALID,0,VALID,90.6016,VALID,0,VALID,22.7978,VALID,65,VALID,0.430859,
2008-06-27, 02:23:05,VALID,1009.81,VALID,0,VALID,90.6016,VALID,0,VALID,22.7783,VALID,65,VALID,0.334375,
2008-06-27, 02:24:05,VALID,1009.81,VALID,0,VALID,90.7541,VALID,0,VALID,22.7783,VALID,65,VALID,0.414844,
2008-06-27, 02:25:05,VALID,1009.83,VALID,0,VALID,90.6016,VALID,0,VALID,22.7588,VALID,65,VALID,0.476172,
2008-06-27, 02:26:05,VALID,1009.81,VALID,0,VALID,90.7541,VALID,0,VALID,22.7588,VALID,65,VALID,0.319141,
2008-06-27, 02:27:05,VALID,1009.81,VALID,0,VALID,90.7236,VALID,0,VALID,22.7394,VALID,65,VALID,0.130078,
2008-06-27, 02:28:05,VALID,1009.82,VALID,0,VALID,91.0057,VALID,0,VALID,22.7394,VALID,65,VALID,0.237891,
2008-06-27, 02:29:05,VALID,1009.85,VALID,0,VALID,90.8304,VALID,0,VALID,22.7199,VALID,65,VALID,0.289063,
2008-06-27, 02:30:05,VALID,1009.84,VALID,0,VALID,91.2879,VALID,0,VALID,22.7199,VALID,62,VALID,0.333594,
2008-06-27, 02:31:05,VALID,1009.84,VALID,0,VALID,91.0057,VALID,0,VALID,22.7199,VALID,61,VALID,0.163672,
2008-06-27, 02:32:05,VALID,1009.82,VALID,0,VALID,91.2421,VALID,0,VALID,22.7004,VALID,60,VALID,0.00117188,
2008-06-27, 02:33:05,VALID,1009.85,VALID,0,VALID,90.9524,VALID,0,VALID,22.7004,VALID,60,VALID,0.0554687,
2008-06-27, 02:34:05,VALID,1009.84,VALID,0,VALID,91.1354,VALID,0,VALID,22.7004,VALID,60,VALID,0,
2008-06-27, 02:35:05,VALID,1009.86,VALID,0,VALID,91.2574,VALID,0,VALID,22.7004,VALID,61,VALID,0.0175781,
2008-06-27, 02:36:05,VALID,1009.85,VALID,0,VALID,91.4709,VALID,0.105969,VALID,22.6987,VALID,60,VALID,0.08125,
2008-06-27, 02:37:05,VALID,1009.86,VALID,0,VALID,91.7073,VALID,0.105969,VALID,22.6792,VALID,60,VALID,0,
2008-06-27, 02:38:05,VALID,1009.86,VALID,0,VALID,91.6921,VALID,0,VALID,22.7004,VALID,60,VALID,0.00273437,
2008-06-27, 02:39:05,VALID,1009.87,VALID,0,VALID,91.4938,VALID,0,VALID,22.6597,VALID,61,VALID,0,
2008-06-27, 02:40:05,VALID,1009.87,VALID,0,VALID,91.2803,VALID,0.105969,VALID,22.6614,VALID,60,VALID,0.285547,
2008-06-27, 02:41:05,VALID,1009.89,VALID,0,VALID,91.448,VALID,0,VALID,22.6614,VALID,60,VALID,0.137891,
2008-06-27, 02:42:05,VALID,1009.89,VALID,0,VALID,91.3413,VALID,0,VALID,22.642,VALID,60,VALID,0.028125,
2008-06-27, 02:43:05,VALID,1009.88,VALID,0,VALID,91.2116,VALID,0,VALID,22.642,VALID,61,VALID,0.162891,
2008-06-27, 02:44:05,VALID,1009.87,VALID,0,VALID,91.2269,VALID,0,VALID,22.6437,VALID,60,VALID,0.280859,
2008-06-27, 02:45:05,VALID,1009.88,VALID,0,VALID,91.3489,VALID,0,VALID,22.6225,VALID,55,VALID,0.357422,
2008-06-27, 02:46:05,VALID,1009.87,VALID,0,VALID,91.5548,VALID,0,VALID,22.603,VALID,31,VALID,0.448828,
2008-06-27, 02:47:05,VALID,1009.82,VALID,0,VALID,91.8827,VALID,0,VALID,22.6225,VALID,31,VALID,0.353906,
2008-06-27, 02:48:05,VALID,1009.84,VALID,0,VALID,92.264,VALID,0,VALID,22.603,VALID,31,VALID,0.410937,
2008-06-27, 02:49:05,VALID,1009.8,VALID,0,VALID,92.0733,VALID,0,VALID,22.564,VALID,31,VALID,0.305078,
2008-06-27, 02:50:05,VALID,1009.83,VALID,0,VALID,91.5472,VALID,0,VALID,22.5251,VALID,31,VALID,0.261328,
2008-06-27, 02:51:05,VALID,1009.82,VALID,0,VALID,91.9208,VALID,0,VALID,22.5251,VALID,31,VALID,0.181641,
2008-06-27, 02:52:05,VALID,1009.81,VALID,0,VALID,92.3555,VALID,0,VALID,22.5463,VALID,31,VALID,0.142578,
2008-06-27, 02:53:05,VALID,1009.84,VALID,0,VALID,92.6834,VALID,0,VALID,22.5446,VALID,31,VALID,0.127344,
2008-06-27, 02:54:05,VALID,1009.83,VALID,0,VALID,92.8969,VALID,0,VALID,22.5446,VALID,31,VALID,0,
2008-06-27, 02:55:05,VALID,1009.85,VALID,0,VALID,92.7063,VALID,0,VALID,22.5056,VALID,31,VALID,0.0546875,
2008-06-27, 02:56:05,VALID,1009.86,VALID,0,VALID,92.7673,VALID,0,VALID,22.5251,VALID,31,VALID,0,
2008-06-27, 02:57:05,VALID,1009.89,VALID,0,VALID,92.6834,VALID,0,VALID,22.5251,VALID,31,VALID,0.0988281,
2008-06-27, 02:58:05,VALID,1009.89,VALID,0,VALID,92.6605,VALID,0,VALID,22.5251,VALID,31,VALID,0,
2008-06-27, 02:59:05,VALID,1009.9,VALID,0,VALID,92.5156,VALID,0,VALID,22.5056,VALID,31,VALID,0.00078125,
2008-06-27, 03:00:05,VALID,1009.91,VALID,0,VALID,92.5233,VALID,0,VALID,22.5251,VALID,31,VALID,0.372266,
2008-06-27, 03:01:05,VALID,1009.9,VALID,0,VALID,92.569,VALID,0,VALID,22.5446,VALID,31,VALID,0.326562,
2008-06-27, 03:02:05,VALID,1009.91,VALID,0,VALID,92.1496,VALID,0,VALID,22.5446,VALID,31,VALID,0.270703,
2008-06-27, 03:03:05,VALID,1009.88,VALID,0,VALID,91.8522,VALID,0,VALID,22.5446,VALID,41,VALID,0.312109,
2008-06-27, 03:04:05,VALID,1009.87,VALID,0,VALID,92.0428,VALID,0,VALID,22.5852,VALID,41,VALID,0.341406,
2008-06-27, 03:05:05,VALID,1009.87,VALID,0,VALID,91.7912,VALID,0,VALID,22.5429,VALID,44,VALID,0.417188,
2008-06-27, 03:06:05,VALID,1009.86,VALID,0,VALID,91.8446,VALID,0,VALID,22.5835,VALID,61,VALID,0.519922,
2008-06-27, 03:07:05,VALID,1009.86,VALID,0,VALID,91.4709,VALID,0,VALID,22.564,VALID,78,VALID,0.495703,
2008-06-27, 03:08:05,VALID,1009.87,VALID,0,VALID,91.7607,VALID,0,VALID,22.6225,VALID,82,VALID,0.373437,
2008-06-27, 03:09:05,VALID,1009.88,VALID,0,VALID,91.3489,VALID,0,VALID,22.603,VALID,87,VALID,0.75625,
2008-06-27, 03:10:05,VALID,1009.89,VALID,0,VALID,90.6931,VALID,0,VALID,22.6225,VALID,87,VALID,0.467578,
2008-06-27, 03:11:05,VALID,1009.86,VALID,0,VALID,90.8227,VALID,0,VALID,22.6614,VALID,87,VALID,0.317969,
2008-06-27, 03:12:05,VALID,1009.85,VALID,0,VALID,91.1964,VALID,0,VALID,22.6614,VALID,87,VALID,0.352734,
2008-06-27, 03:13:05,VALID,1009.84,VALID,0,VALID,90.9295,VALID,0,VALID,22.6826,VALID,87,VALID,0.329688,
2008-06-27, 03:14:05,VALID,1009.83,VALID,0,VALID,90.0525,VALID,0,VALID,22.6632,VALID,87,VALID,0.353125,
2008-06-27, 03:15:05,VALID,1009.85,VALID,0,VALID,90.1898,VALID,0,VALID,22.6614,VALID,67,VALID,0.374609,
2008-06-27, 03:16:05,VALID,1009.8,VALID,0,VALID,90.1974,VALID,0,VALID,22.6809,VALID,67,VALID,0.292969,
2008-06-27, 03:17:05,VALID,1009.79,VALID,0,VALID,90.1288,VALID,0,VALID,22.6826,VALID,67,VALID,0.344141,
2008-06-27, 03:18:05,VALID,1009.8,VALID,0,VALID,90.5787,VALID,0,VALID,22.6826,VALID,67,VALID,0.318359,
2008-06-27, 03:19:05,VALID,1009.79,VALID,0,VALID,90.1974,VALID,0,VALID,22.6614,VALID,71,VALID,0.419922,
2008-06-27, 03:20:05,VALID,1009.83,VALID,0,VALID,90.3194,VALID,0,VALID,22.6826,VALID,80,VALID,0.419922,
2008-06-27, 03:21:05,VALID,1009.83,VALID,0,VALID,90.655,VALID,0,VALID,22.6826,VALID,80,VALID,0.302734,
2008-06-27, 03:22:05,VALID,1009.86,VALID,0,VALID,90.2584,VALID,0,VALID,22.6809,VALID,81,VALID,0.470313,
2008-06-27, 03:23:05,VALID,1009.92,VALID,0,VALID,90.5482,VALID,0,VALID,22.6809,VALID,81,VALID,0.326953,
2008-06-27, 03:24:05,VALID,1009.94,VALID,0,VALID,90.4643,VALID,0,VALID,22.6809,VALID,81,VALID,0.339063,
2008-06-27, 03:25:05,VALID,1009.97,VALID,0,VALID,89.9915,VALID,0,VALID,22.7021,VALID,84,VALID,0.4125,
2008-06-27, 03:26:05,VALID,1009.97,VALID,0,VALID,90.0068,VALID,0,VALID,22.6809,VALID,92,VALID,0.507813,
2008-06-27, 03:27:05,VALID,1009.97,VALID,0,VALID,90.7541,VALID,0,VALID,22.7216,VALID,92,VALID,0.147656,
2008-06-27, 03:28:05,VALID,1009.97,VALID,0,VALID,90.6016,VALID,0,VALID,22.7021,VALID,70,VALID,0.492578,
2008-06-27, 03:29:05,VALID,1009.99,VALID,0,VALID,91.2193,VALID,0,VALID,22.7004,VALID,69,VALID,0.214844,
2008-06-27, 03:30:05,VALID,1009.99,VALID,0,VALID,90.9447,VALID,0,VALID,22.6614,VALID,69,VALID,0,
2008-06-27, 03:31:05,VALID,1009.94,VALID,0,VALID,90.8151,VALID,0,VALID,22.642,VALID,69,VALID,0.229687,
2008-06-27, 03:32:05,VALID,1009.94,VALID,0,VALID,90.8761,VALID,0,VALID,22.6632,VALID,69,VALID,0.0714844,
2008-06-27, 03:33:05,VALID,1009.93,VALID,0,VALID,90.3347,VALID,0,VALID,22.6632,VALID,75,VALID,0.340234,
2008-06-27, 03:34:05,VALID,1009.94,VALID,0,VALID,90.6702,VALID,0,VALID,22.6614,VALID,75,VALID,0.337891,
2008-06-27, 03:35:05,VALID,1009.92,VALID,0,VALID,91.0744,VALID,0,VALID,22.7021,VALID,75,VALID,0.00351562,
2008-06-27, 03:36:05,VALID,1009.92,VALID,0,VALID,91.3108,VALID,0,VALID,22.6809,VALID,75,VALID,0.116016,
2008-06-27, 03:37:05,VALID,1009.93,VALID,0,VALID,91.2116,VALID,0,VALID,22.6809,VALID,75,VALID,0.0121094,
2008-06-27, 03:38:05,VALID,1009.93,VALID,0,VALID,90.5253,VALID,0,VALID,22.6826,VALID,75,VALID,0.231641,
2008-06-27, 03:39:05,VALID,1009.98,VALID,0,VALID,90.6702,VALID,0,VALID,22.6809,VALID,75,VALID,0.314844,
2008-06-27, 03:40:05,VALID,1009.95,VALID,0,VALID,90.5406,VALID,0,VALID,22.6809,VALID,68,VALID,0.403125,
2008-06-27, 03:41:05,VALID,1009.96,VALID,0,VALID,90.3728,VALID,0,VALID,22.6826,VALID,68,VALID,0.380859,
2008-06-27, 03:42:05,VALID,1009.94,VALID,0,VALID,90.6626,VALID,0,VALID,22.642,VALID,59,VALID,0.469531,
2008-06-27, 03:43:05,VALID,1009.95,VALID,0,VALID,90.7541,VALID,0,VALID,22.6437,VALID,57,VALID,0.358594,
2008-06-27, 03:44:05,VALID,1009.94,VALID,0,VALID,90.716,VALID,0,VALID,22.5835,VALID,68,VALID,0.383984,
2008-06-27, 03:45:05,VALID,1009.95,VALID,0,VALID,90.6016,VALID,0,VALID,22.5835,VALID,77,VALID,0.571484,
2008-06-27, 03:46:05,VALID,1009.93,VALID,0,VALID,90.7693,VALID,0,VALID,22.5835,VALID,77,VALID,0.376172,
2008-06-27, 03:47:05,VALID,1009.95,VALID,0,VALID,90.8151,VALID,0,VALID,22.5835,VALID,77,VALID,0.328516,
2008-06-27, 03:48:05,VALID,1009.94,VALID,0,VALID,90.8456,VALID,0,VALID,22.5835,VALID,82,VALID,0.309766,